Погода в Балаганске

Погода в Балаганске : погода сейчас, прогноз погоды и архив. Всё, что Вы хотите узнать о погоде в Балаганске!

Хотите узнать прогноз погоды в Балаганске? Тогда Вам сюда: Погода в Балаганске

Поиск расширенной информации на нашем сайте:

Полезная информация: Монолитный поликарбонат кишинев купить поликарбонат монолитный.

Другие новости

Новости СМИ2

Главная страница сайта

Новости сайта

02.10.2013

Напоминаем, что на нашем новом сайте вы можете получить высокодетализированные прогнозы погоды по пунктам России, СНГ и мира (включающие важные для авиации метеовеличины, такие как направление и скорость ветра, видимость, явления погоды, количество и форма облачности, нижняя и верхняя граница облачности), а также ознакомиться с разнообразными материалами по авиационной метеорологии и подборкой полезных ссылок на эту тему.

Сайт Метеоцентр.Азия посвящён разработке технологий оптимизации авиаметеорологического обслуживания, включая проектирование и перспективное создание нескольких автоматизированных авиаметеорологических систем:
- система выпуска высокодетальных прогностических карт явлений погоды для нижнего воздушного пространства по России и ближнему зарубежью;
- система верификации прогнозов TAF (выпускаемых синоптиками официальных АМСГ РФ и ближнего зарубежья) и AUTOTAF (выпускаемых сайтом Метеоцентр.Азия) - выявление ошибок, онлайн-сопоставление с фактической погодой METAR, автоматическое внесение коррективов в прогнозы при резком отклонении фактической погоды от прогноза, подсчёт оправдываемости прогнозов по элементам и в целом;
- система обработки, анализа и отображения авиаметеорологической информации для применения провайдерами метеорологической информации.

Рекомендуем: Кто готов сделать сайт интернет магазина люстры.

Погода в Балаганске - сегодня

Время (UTC), дата Ветер
(°,м/с) 
Видим.   Явления Облачность Т
(°С)
Тd
(°С)
f(%) Тe
(°С)
Pmin
(гПа)
dP
(гПа)
Po
(мм)
O2
(г/м3)
Тmin Tmax R s Состояние
почвы
15 16.02.17 280 (З) н/о    ясно 
-27.5 -30.7 74 -28  1038  -1.7  734  331           
18 16.02.17 270 (З) н/о    ясно 
-28.8 -32.1 73 -29  1037  -1.3  733  332           
21 16.02.17 270 (З) н/о    ясно 
-29.8 -33.3 72 -33  1035.6  -1.5  732  333           
00 17.02.17 280 (З) 20000 м    3/3 600 м верхняя 
[Sc|Ci fib]
-30.3 -33.8 71 -31  1035.1  -0.6  731  333  -30.9      27  равномерный
сухой снег
100% 
03 17.02.17 300 (СЗ) 20000 м    3/3 600 м верхняя 
[Sc|Ci fib]
-28.4 -31.9 72 -29  1034.1  -0.6  731  331  -31.8         
06 17.02.17 090 (В) 20000 м    ясно 
-25.3 -28.7 73 -26  1031.3  -1.8  730  326           
09 17.02.17 090 (В) 20000 м    3/0 верхняя 
[Ci fib]
-24.8 -28.3 73 -28  1027.9  -3.2  727  324           
12 17.02.17 тихо ()   н/о    3/0 верхняя 
[Ci fib]
-24.6 -27.4 78 -25  1024.4  -3.2  725  323    -21.8       
15 17.02.17 320 (СЗ) н/о    3/0 верхняя 
[Ci fib]
-25.8 -28.8 76 -26  1019.7  -4.7  721  323           
18 17.02.17 290 (З) н/о    9/0 верхняя 
[Cs]
-22.3 -25 79 -27  1014.2  -4.4  718  317           
21 17.02.17 290 (З) н/о    10/0 верхняя 
[Cs]
-21.9 -24.7 78 -26  1010.3  -3.6  715  315           
00 18.02.17 тихо ()   20000 м    10/3 600 м средняя, верхняя 
[Sc|Ac lent|Cs]
-18.1 -20.8 79 -18  1009.7  0.2  715  310  -27.3      27  равномерный
сухой снег
100% 
03 18.02.17 290 (З) 20000 м    10/3 600 м средняя, верхняя 
[Sc|Ac lent|Cs]
-14.2 -19.4 65 -14  1011.8  2.9  718  306           
06 18.02.17 310 (СЗ) 5{11}  20000 м    8/3 600 м средняя, верхняя 
[Sc|Ac trans|Cs]
-9.3 -15 63 -14  1015.6  4.6  721  302           
09 18.02.17 320 (СЗ) 6-14{14}  20000 м  позёмок  9/3 600 м средняя, верхняя 
[Sc diur, vesp|Ac trans|Cs]
-8.7 -14.9 61 -14  1020.3  4.5  724  303           
12 18.02.17 300 (СЗ) 2{14}  н/о    4/3 600 м верхняя 
[Sc diur, vesp|Ci fib]
-11.8 -16.3 69 -14  1025.9  4.7  728  308    -8.2       
15 18.02.17 310 (СЗ) н/о    4/3 600 м верхняя 
[Sc|Ci fib]
-13.2 -17.5 70 -15  1028.6  2.3  730  310           
18 18.02.17 220 (ЮЗ) н/о    3/3 600 м 
[Sc]
-17.2 -19.6 82 -17  1030.8  1.2  731  316           
21 18.02.17 тихо ()   н/о    ясно 
-21.5 -23.7 82 -22  1032.7  0.9  731  321           
00 19.02.17 100 (В) 20000 м    3/0 верхняя 
[Ci fib]
-24.9 -27.4 80 -30  1034.1  0.5  732  326  -25.2      26  равномерный
сухой снег
100% 
03 19.02.17 090 (В) 20000 м    3/0 верхняя 
[Ci fib]
-22.2 -24.8 79 -27  1034.4  0.9  732  323  -27.1         
06 19.02.17 090 (В) 20000 м    ясно 
-17.8 -20.2 81 -23  1032.5  -0.8  732  317           
09 19.02.17 080 (В) 20000 м    ясно 
-15.3 -18.3 78 -18  1030.4  -1.4  731  313           
12 19.02.17 170 (Ю) н/о    ясно 
-18 -20.5 81 -18  1028.8  -2.2  729  316    -14.5       
15 19.02.17 270 (З) н/о    ясно 
-21.3 -23.5 82 -22  1027.9  -1.5  728  320           
Время (UTC), дата Ветер
(°,м/с) 
Видим.   Явления Облачность Т
(°С)
Тd
(°С)
f(%) Тe
(°С)
Pmin
(гПа)
dP
(гПа)
Po
(мм)
O2
(г/м3)
Тmin Tmax R s Состояние
почвы

Для получения пояснительной информации подведите курсор к названию столбца.

ПОГОДА в Балаганске - архив

Всё, что Вы хотите узнать о погоде в Балаганске - удобно и подробно!

Выберите нужную дату (начиная с 1 января 2015* года) и нажмите кнопку "Найти".
Будут отображены архивные сводки погоды по пункту Балаганск, начиная с указанной даты.


Отображать данные в формате CSV (для использования в таблицах Excel)


Внимание! Наш архив погоды предназначен исключительно для личного некоммерческого использования в познавательных целях. Если Вам необходимы официальные справки о состоянии погоды (для производственных, юридических, коммерческих и т.п. целей), обращайтесь в органы Росгидромета.

*Примечание: данная дата относится к архиву по метеостанциям СССР (Россия, СНГ, Балтия).
Архив по метеостанциям Зарубежной Европы и Азии (кроме Китая) хранится 10 дней, по другим регионам земного шара (Китай, Африка, Америка, Австралия, Океания) - 1 день.

Балаганск - район местоположения метеостанции


Название, широта, долгота, высота метеостанции:
Балаганск 54°ш. 103.1°д. 427 м над ур. моря [Российская Федерация]

Дополнительная информация

В oтличие oт бoльшинства пoгoдных сайтoв мы публикуем пoдрoбную метеoинфoрмацию в детальнoм прoфессиoнальнoм фoрмате.

Характеристики температуры и влажнoсти вoздуха измеряются на высoте 2 м в тени вдали oт зданий и деревьев.
Скoрoсть ветра измеряется на высoте 10 м (на урoвне рoста челoвека скoрoсть ветра ниже в 1.5-2 раза). Если метеoстанция нахoдится в гoрoде или в лесу, тo скoрoсть ветра занижена на 2-4 м/с пo сравнению с oткрытым местoм. Скoрoсть ветра над акватoриями крупных рек и oзёр, а также на вершинах хoлмoв на 2-5 м/с выше, чем в oбычных услoвиях.
Атмoсфернoе давление в разных тoчках местнoсти мoжет значительнo oтличаться oт давления на метеoстанции, в зависимoсти oт услoвий рельефа (при пoдъёме на 10 м давление пoнижается примернo на 1 мм рт.ст.).